www.pogodaiklimat.ru

Погода и климат >> Архив погоды >> Южная Африка >> Паддок


ПОГОДА в Паддоке

  • Прогноз погоды в Паддоке
  • Монитор погоды в Паддоке

АРХИВ ПОГОДЫ в Паддоке

Время (UTC), дата Ветер
(напр.,м/с)
 
Видим.   Явления Облачность Т
(С)
Тd
(С)
f
(%)
Тe
(С)
Тes
(С)
Комфортность P
(гПа)
Po
(гПа)
Тmin
(С)
Tmax
(С)
R
(мм)
R24
(мм)
S
(см)
12 12.06 Ю 4 н/о н/о +24.7 +6.6 31 +25 +25 комфорт 958.6 +13.6 +29.7
18 12.06 ЮЗ 4 н/о н/о +17.3 +15.3 88 +17 +17 963.3 +17.3 +29.7
00 13.06 ЮЗ 9 н/о н/о +13.1 +6.7 65 +10 +10 966.4 +13.1 +29.7
03 13.06 ЮЗ 7 н/о н/о +12.7 +2.6 50 +10 +10 968.5 +12.5 +29.7
06 13.06 ЮЗ 6 н/о н/о +12.4 +0.8 45 +10 +10 971.7 +12.1
12 13.06 ЮЗ 7 н/о н/о +16.0 +4.8 47 +15 +15 971.6 +12.1 +16.7
18 13.06 ЮЗ 2 н/о н/о +10.3 +8.7 90 +9 +9 973.9 +10.2 +16.7
00 14.06 СЗ 2 н/о н/о +8.4 +5.8 84 +7 +7 973.0 +8.1 +16.7
03 14.06 СЗ 3 н/о н/о +6.9 +3.5 79 +4 +4 972.6 +6.7 +16.7
06 14.06 С 3 н/о н/о +7.8 +3.4 74 +5 +5 972.1 +6.6
12 14.06 СВ 3 н/о н/о +19.0 +5.5 41 +20 +20 968.8 +6.6 +19.2
18 14.06 С 2 н/о н/о +11.2 +9.7 90 +10 +10 969.4 +11.2 +19.7
00 15.06 С 3 н/о н/о +9.8 +5.9 77 +8 +8 966.7 +9.8 +19.7
03 15.06 С 4 н/о н/о +9.3 +4.3 71 +7 +7 965.4 +9.2 +19.7
06 15.06 С 4 н/о н/о +10.7 +3.3 60 +9 +9 966.0 +8.5
12 15.06 СВ 2 н/о н/о +23.6 +7.4 35 +24 +24 комфорт 962.1 +8.5 +23.9 0.2
18 15.06 З 2 н/о н/о +17.8 +5.5 44 +18 +18 963.6 +16.1 +23.9 0.2
00 16.06 СЗ 3 н/о н/о +14.2 +2.2 44 +14 +14 964.5 +12.8 +23.9 0.2
03 16.06 ЮЗ 4 н/о н/о +16.1 +1.5 37 +15 +15 965.1 +12.8 +23.9
06 16.06 СЗ 2 н/о н/о +12.2 +6.7 69 +12 +12 967.1 +11.8 0.2
12 16.06 В 2 н/о н/о +22.9 +12.6 52 +26 +26 жарко 964.9 +11.8 +22.9
18 16.06 С 2 н/о н/о +15.1 +14.3 95 +15 +15 965.2 +14.8 +22.9
00 17.06 С 3 н/о н/о +12.1 +5.9 66 +11 +11 963.9 +12.1 +22.9
03 17.06 СЗ 3 н/о н/о +10.5 +3.8 63 +9 +9 963.8 +10.3 +22.9
06 17.06 З 3 н/о н/о +11.8 +2.5 53 +10 +10 965.1 +8.7
12 17.06 ЮЗ 4 н/о н/о +24.2 +1.3 22 +23 +23 комфорт 963.6 +8.7 +24.5
18 17.06 З 3 н/о н/о +18.2 -1.4 26 +19 +19 965.5 +16.9 +24.5
00 18.06 СЗ 3 н/о н/о +12.4 +0.8 45 +11 +11 966.3 +12.4 +24.5
03 18.06 СЗ 4 н/о н/о +10.9 +0.9 50 +9 +9 966.9 +10.9 +24.5
06 18.06 СЗ 2 н/о н/о +13.0 +0.7 43 +13 +13 968.9 +10.9
12 18.06 Ю 4 н/о н/о +22.1 +14.8 63 +25 +25 комфорт 968.8 +10.9 +22.8
18 18.06 Ю 1 н/о н/о +15.2 +14.2 94 +16 +16 971.4 +14.8 +22.8
00 19.06 С 2 н/о н/о +13.4 +12.6 95 +13 +13 971.1 +13.4 +22.8
03 19.06 С 3 н/о н/о +12.8 +12.3 97 +11 +11 970.8 +12.5 +22.8
06 19.06 С 3 н/о н/о +11.4 +9.9 90 +10 +10 971.6 +11.1

 

Местоположение метеостанции Паддок (Южная Африка): широта -30.75 долгота 30.26 высота над уровнем моря 506 м.

В архиве по умолчанию представлена погода в Паддоке за последнюю неделю. Архивные данные за месяц целиком и за предыдущие месяцы, начиная с января 2011 года, Вы можете получить, выбрав интересующий диапазон дат из раскрывающегося списка и нажав кнопку "Ввод!".


*Определитесь, кто Вы:
робот инопланетянин человек

Внимание! Время в таблицах - всемирное. Для получения местного времени необходимо прибавить поправку, которая равна 2 ч.

Смотрите также архив погоды в соседних городах и на ближайших метеорологических станциях:

Погода в Маргите (Южная Африка) (13 км)
Погода в Порт-Эдварде (Южная Африка) (35 км)
Погода в Пеннингтоне (Южная Африка) (57 км)
Погода в Иксопо (Южная Африка) (69 км)
Погода в Кокстаде (Южная Африка) (87 км)
Погода в Дурбане (Южная Африка) (110 км)
Погода в Порт Сент-Джон (Южная Африка) (119 км)
Погода в Питермарицбург аэропорту (Южная Африка) (123 км)
Погода в Питермарицбурге (Южная Африка) (125 км)
Погода в Аэропорту Вирджиния (Южная Африка) (133 км)

Пояснения к столбцам:

Ветер - указаны скорость ветра в м/с - средняя за 10 мин, порывы в срок и между сроками (в фигурных скобках) и направление, откуда дует ветер: С - северный, СВ - северо-восточный, В - восточный, ЮВ - юго-восточный, Ю - южный, ЮЗ - юго-западный, З - западный, СЗ - северо-западный.
Видимость - горизонтальная дальность видимости в метрах или километрах. При видимости от 1 до 10 км при отсутствии осадков обычно наблюдается дымка, при ухудшении видимости до 1 км и менее - туман. В сухую погоду видимость может ухудшаться дымом, пылью или мглою.
Явления - указаны атмосферные явления, наблюдавшиеся в срок или в последний час перед сроком; фигурными скобками обозначены явления, наблюдавшиеся между сроками (за 1-3 часа до срока); квадратными скобками обозначены град или гололедные отложения с указанием их диаметра в мм.
Облачность - указаны через наклонную черту общая и нижняя облачность в баллах и высота нижней границы облаков в метрах; квадратными скобками обозначены формы облаков: Ci - перистые, Cs - перисто-слоистые, Cc - перисто-кучевые, Ac - высококучевые, As - высокослоистые, Sc - слоисто-кучевые, Ns - слоисто-дождевые, Cu - кучевые, Cb - кучево-дождевые. Подробнее классификацию облаков см. в Атласе облаков (PDF).
T - Температура воздуха - температура, измеренная на высоте 2 м над землей.
Td - Температура точки росы - температура, при понижении до которой содержащийся в воздухе водяной пар достигнет насыщения.
f - Относительная влажность воздуха - влажноcть воздуха, измеренная на высоте 2 м над землей.
Te - Эффективная температура - температура, которую ощущает одетый по сезону человек в тени. Характеристика душности погоды. При расчете учитывается влияние влажности воздуха и скорости ветра на теплоощущения человека.
Tes - Эффективная температура на солнце - температура, которую ощущает человек, с поправкой на солнечный нагрев. Характеристика знойности погоды. Зависит от высоты солнца над горизонтом, облачности и скорости ветра. Ночью, в пасмурную погоду, а также при ветре 12 м/с и более поправка равна нулю.
P - Атмосферное давление - приведенное к уровню моря атмосферное давление.
Po - Атмосферное давление - измеренное на уровне метеостанции атмосферное давление.
Tmin - Минимальная температура - минимум температуры воздуха на высоте 2 м над землей.
Tmax - Максимальная температура - максимум температуры воздуха на высоте 2 м над землей.
R - Количество осадков - Количество выпавших осадков за период времени, мм. При наведении курсора мыши на число - период времени, за который выпало указанное количество осадков.
R24 - Количество осадков - Количество выпавших осадков за 24 часа, мм.
S - Снежный покров - Высота снежного покрова, см. При наведении курсора мыши на число - состояние снежного покрова и степень покрытия местности в баллах.